Date String (YYYY-MM-DD hh:mm:ss) UTC,Instrument flags,Ambient pressure (hPa),Sample flow (lpm),Bypass flow (lpm),Sample temperature (°C),Ambient temperature (°C),ASC tube jacket temperature (°C),LED temperature (°C),Box temperature (°C),Sample RH (%),Span deviation,Mass concentration (μg/m³),Mass concentration (μg/m³),Mass concentration (μg/m³)
DateTimeUTC,F1_M11,P_M11,Q1_M11,Q2_M11,T1_M11,T2_M11,T3_M11,T4_M11,T5_M11,U1_M11,ZSPAN_M11,X0_M11,X2_M11,X1_M11
2022-08-17 20:00:00,,0832.2,4.99,0.00,29.3,27.3,00.0,38.0,31.1,22.4,0000.0,0008.46,0004.90,0004.46
2022-08-17 20:01:00,,0832.2,5.02,0.00,29.3,27.0,00.0,37.9,31.0,23.8,0000.0,0008.30,0004.91,0004.46
2022-08-17 20:02:00,,0832.2,4.99,0.00,29.2,27.0,00.0,37.9,30.9,25.5,0000.0,0008.05,0004.87,0004.47
2022-08-17 20:03:00,,0832.2,5.01,0.00,29.2,27.1,00.0,37.9,31.0,25.3,0000.0,0008.00,0004.89,0004.49
2022-08-17 20:04:00,,0832.2,4.99,0.00,29.2,27.3,00.0,37.9,31.0,25.6,0000.0,0007.92,0004.89,0004.49
2022-08-17 20:05:00,,0832.1,5.00,0.00,29.2,27.5,00.0,37.9,31.1,25.5,0000.0,0007.79,0004.86,0004.48
2022-08-17 20:06:00,,0832.1,4.99,0.00,29.2,27.7,00.0,37.9,31.1,24.9,0000.0,0007.74,0004.82,0004.47
2022-08-17 20:07:00,,0832.2,5.00,0.00,29.2,27.9,00.0,38.0,31.2,25.0,0000.0,0007.77,0004.83,0004.46
2022-08-17 20:08:00,,0832.1,5.01,0.00,29.3,28.0,00.0,38.0,31.3,24.2,0000.0,0007.86,0004.81,0004.45
2022-08-17 20:09:00,,0832.1,4.99,0.00,29.3,28.2,00.0,38.0,31.3,24.1,0000.0,0007.76,0004.78,0004.44
2022-08-17 20:10:00,,0832.1,5.00,0.00,29.3,28.3,00.0,38.0,31.4,24.7,0000.0,0007.77,0004.77,0004.42
2022-08-17 20:11:00,,0832.2,5.00,0.00,29.4,28.4,00.0,38.0,31.4,23.5,0000.0,0007.70,0004.75,0004.41
2022-08-17 20:12:00,,0832.1,5.00,0.00,29.4,28.5,00.0,38.1,31.4,23.6,0000.0,0007.61,0004.73,0004.40
2022-08-17 20:13:00,,0832.2,5.00,0.00,29.4,28.0,00.0,38.0,31.2,22.8,0000.0,0007.85,0004.75,0004.39
2022-08-17 20:14:00,,0832.2,4.99,0.00,29.3,27.3,00.0,38.0,31.1,22.8,0000.0,0007.85,0004.74,0004.37
2022-08-17 20:15:00,,0832.1,5.00,0.00,29.3,27.1,00.0,38.0,31.0,22.9,0000.0,0008.04,0004.74,0004.36
2022-08-17 20:16:00,,0832.1,5.01,0.00,29.2,27.1,00.0,38.0,30.9,23.1,0000.0,0008.25,0004.71,0004.33
2022-08-17 20:17:00,,0832.1,4.99,0.00,29.2,27.2,00.0,38.0,31.0,22.2,0000.0,0008.42,0004.70,0004.32
2022-08-17 20:18:00,,0832.1,5.01,0.00,29.2,27.4,00.0,38.0,31.0,22.2,0000.0,0008.31,0004.67,0004.31
2022-08-17 20:19:00,,0832.1,5.00,0.00,29.2,27.6,00.0,38.0,31.1,21.1,0000.0,0008.30,0004.64,0004.29
2022-08-17 20:20:00,,0832.2,4.98,0.00,29.2,27.8,00.0,38.0,31.2,19.8,0000.0,0008.58,0004.62,0004.26
2022-08-17 20:21:00,,0832.1,5.00,0.00,29.3,28.0,00.0,38.0,31.2,19.4,0000.0,0008.56,0004.59,0004.25
2022-08-17 20:22:00,,0832.1,5.01,0.00,29.3,28.1,00.0,38.0,31.3,18.5,0000.0,0008.59,0004.56,0004.23
2022-08-17 20:23:00,,0832.1,5.00,0.00,29.3,28.3,00.0,38.0,31.4,18.5,0000.0,0008.57,0004.53,0004.20
2022-08-17 20:24:00,,0832.1,5.01,0.00,29.4,28.4,00.0,38.1,31.4,19.9,0000.0,0008.36,0004.48,0004.17
2022-08-17 20:25:00,,0832.1,4.99,0.00,29.4,28.4,00.0,38.1,31.4,20.6,0000.0,0008.22,0004.42,0004.14
2022-08-17 20:26:00,,0832.1,5.00,0.00,29.4,27.8,00.0,38.0,31.2,20.2,0000.0,0008.09,0004.40,0004.12
2022-08-17 20:27:00,,0832.1,5.01,0.00,29.3,27.2,00.0,38.0,31.1,19.8,0000.0,0007.82,0004.40,0004.10
2022-08-17 20:28:00,,0832.0,5.00,0.00,29.3,27.0,00.0,38.0,31.0,18.9,0000.0,0007.67,0004.40,0004.07
2022-08-17 20:29:00,,0832.1,4.99,0.00,29.2,27.1,00.0,38.0,30.9,20.1,0000.0,0007.60,0004.37,0004.04
2022-08-17 20:30:00,,0832.0,5.00,0.00,29.2,27.3,00.0,38.0,31.0,20.6,0000.0,0007.59,0004.33,0004.01
2022-08-17 20:31:00,,0832.1,5.00,0.00,29.2,27.4,00.0,38.0,31.0,21.2,0000.0,0006.89,0004.32,0004.00
2022-08-17 20:32:00,,0832.1,5.00,0.00,29.2,27.6,00.0,38.0,31.1,20.9,0000.0,0007.62,0004.32,0003.99
2022-08-17 20:33:00,,0832.1,4.98,0.00,29.2,27.8,00.0,38.0,31.2,21.7,0000.0,0007.73,0004.28,0003.96
2022-08-17 20:34:00,,0832.1,5.00,0.00,29.3,28.0,00.0,38.0,31.3,22.4,0000.0,0007.70,0004.27,0003.96
2022-08-17 20:35:00,,0832.1,5.00,0.00,29.3,28.2,00.0,38.0,31.3,21.9,0000.0,0007.73,0004.29,0003.97
2022-08-17 20:36:00,,0832.1,5.00,0.00,29.4,28.3,00.0,38.0,31.4,22.0,0000.0,0007.84,0004.32,0003.97
2022-08-17 20:37:00,,0832.1,5.00,0.00,29.4,28.5,00.0,38.1,31.4,21.2,0000.0,0007.89,0004.31,0003.95
2022-08-17 20:38:00,,0832.1,5.00,0.00,29.5,28.3,00.0,38.1,31.4,21.1,0000.0,0007.95,0004.33,0003.95
2022-08-17 20:39:00,,0832.1,5.00,0.00,29.4,27.6,00.0,38.0,31.1,20.7,0000.0,0007.91,0004.31,0003.94
2022-08-17 20:40:00,,0832.1,5.01,0.00,29.3,27.1,00.0,38.0,31.0,19.7,0000.0,0008.42,0004.30,0003.95
2022-08-17 20:41:00,,0832.1,4.99,0.00,29.2,27.0,00.0,37.9,30.9,20.1,0000.0,0008.92,0004.30,0003.95
2022-08-17 20:42:00,,0832.1,5.00,0.00,29.2,27.1,00.0,37.9,30.9,20.2,0000.0,0009.42,0004.31,0003.94
2022-08-17 20:43:00,,0832.1,5.00,0.00,29.2,27.3,00.0,37.9,31.0,20.2,0000.0,0008.97,0004.31,0003.95
2022-08-17 20:44:00,,0832.0,4.99,0.00,29.2,27.5,00.0,38.0,31.0,20.7,0000.0,0008.68,0004.30,0003.95
2022-08-17 20:45:00,,0832.0,5.01,0.00,29.2,27.7,00.0,38.0,31.1,21.6,0000.0,0008.69,0004.30,0003.96
2022-08-17 20:46:00,,0832.0,4.99,0.00,29.2,27.9,00.0,38.0,31.2,21.2,0000.0,0008.70,0004.29,0003.94
2022-08-17 20:47:00,,0832.0,5.01,0.00,29.3,28.0,00.0,38.0,31.3,20.5,0000.0,0008.82,0004.29,0003.94
2022-08-17 20:48:00,,0832.0,5.00,0.00,29.3,28.2,00.0,38.0,31.3,20.8,0000.0,0008.81,0004.30,0003.94
2022-08-17 20:49:00,,0832.0,4.99,0.00,29.4,28.3,00.0,38.0,31.4,21.0,0000.0,0008.72,0004.26,0003.93
2022-08-17 20:50:00,,0832.0,5.01,0.00,29.4,28.5,00.0,38.1,31.4,21.2,0000.0,0008.75,0004.27,0003.94
2022-08-17 20:51:00,,0832.0,4.99,0.00,29.4,28.2,00.0,38.0,31.4,21.1,0000.0,0008.36,0004.30,0003.95
2022-08-17 20:52:00,,0832.0,5.02,0.00,29.4,27.5,00.0,38.0,31.1,21.9,0000.0,0007.78,0004.31,0003.96
2022-08-17 20:53:00,,0832.0,4.99,0.00,29.3,27.1,00.0,38.0,31.0,22.2,0000.0,0007.06,0004.31,0003.97
2022-08-17 20:54:00,,0831.9,5.00,0.00,29.2,27.1,00.0,38.0,31.0,22.1,0000.0,0007.13,0004.32,0003.98
2022-08-17 20:55:00,,0831.9,5.01,0.00,29.2,27.2,00.0,37.9,30.9,22.3,0000.0,0007.80,0004.37,0003.99
2022-08-17 20:56:00,,0831.8,5.00,0.00,29.2,27.4,00.0,37.9,31.0,22.7,0000.0,0008.12,0004.39,0003.99
2022-08-17 20:57:00,,0831.8,5.00,0.00,29.2,27.6,00.0,38.0,31.1,22.6,0000.0,0008.27,0004.41,0003.99
2022-08-17 20:58:00,,0831.8,5.00,0.00,29.2,27.8,00.0,38.0,31.2,21.9,0000.0,0008.21,0004.43,0004.00
2022-08-17 20:59:00,,0831.8,4.98,0.00,29.3,27.9,00.0,38.0,31.2,22.4,0000.0,0008.11,0004.40,0003.99
